EW3148 Weather Reports


time (UTC)temp
F
wind
direction
speed
knots
gust
knots
rain 1hr
in
rain 24hr
in
rain mn
in
humidity
%
barometer
mb
20260906213638 78 100 1.7 8.7 0.04 0.72 0.72 92 1009.4
20260906212632 77 136 0.0 0.0 0.12 0.72 0.72 90 1009.5
20260906210630 80 86 6.1 15.6 2.52 0.51 0.60 78 1010.0
20260906205629 91 88 5.2 15.6 3.76 0.06 0.17 59 1010.2
20260906204640 99 26 0.9 5.2 0.00 0.00 0.00 45 1009.5
20260906202508 99 313 1.7 8.7 0.00 0.00 0.00 45 1009.6
20260906201524 98 21 1.7 8.7 0.00 0.00 0.00 46 1009.6
20260906200538 97 355 2.6 8.7 0.00 0.00 0.00 46 1009.9
20260906195522 97 12 2.6 8.7 0.00 0.00 0.00 47 1010.0
20260906194534 96 350 2.6 7.8 0.00 0.00 0.00 48 1010.2
20260906192337 93 44 1.7 9.6 0.00 0.00 0.00 52 1010.3
20260906191340 92 0 3.5 9.6 0.00 0.00 0.00 53 1010.5
20260906185216 93 17 3.5 11.3 0.00 0.00 0.00 53 1010.6
20260906183026 91 338 0.9 5.2 0.00 0.00 0.00 53 1010.9
20260906182051 90 301 1.7 5.2 0.00 0.00 0.00 55 1010.9
20260906181106 89 300 1.7 6.1 0.00 0.00 0.00 58 1010.9
20260906180036 89 248 1.7 6.1 0.00 0.00 0.00 61 1011.1
20260906175007 88 227 1.7 7.0 0.00 0.00 0.00 64 1011.4
20260906173955 87 236 1.7 7.8 0.00 0.00 0.00 63 1011.6
20260906172936 88 211 1.7 7.8 0.00 0.00 0.00 61 1011.6
20260906171905 90 241 0.9 2.6 0.00 0.00 0.00 59 1011.8
20260906170907 91 5 0.9 3.5 0.00 0.00 0.00 58 1011.9
20260906165908 91 306 0.9 3.5 0.00 0.00 0.00 57 1011.9
20260906164854 91 5 1.7 6.1 0.00 0.00 0.00 59 1011.9
20260906162729 90 323 0.9 4.3 0.00 0.00 0.00 62 1012.0
20260906160618 88 294 0.9 3.5 0.00 0.00 0.00 66 1012.0
20260906155639 87 301 0.9 3.5 0.00 0.00 0.00 67 1012.1
20260906154634 86 35 0.0 3.5 0.00 0.00 0.00 69 1012.0
20260906153617 85 178 0.0 0.9 0.00 0.00 0.00 71 1012.0
20260906152614 84 178 0.0 2.6 0.00 0.00 0.00 73 1011.9
20260906151555 83 130 0.0 0.9 0.00 0.00 0.00 78 1011.8
20260906150551 83 204 0.0 2.6 0.00 0.00 0.00 80 1011.7
20260906145551 82 171 0.0 2.6 0.00 0.00 0.00 80 1011.7
20260906144544 82 274 0.0 2.6 0.00 0.00 0.00 81 1011.5
20260906143601 82 220 0.9 4.3 0.00 0.00 0.00 81 1011.7
20260906141427 82 218 0.9 3.5 0.00 0.00 0.00 80 1011.5
20260906135312 82 127 1.7 6.1 0.00 0.00 0.00 79 1011.3
20260906134253 82 139 1.7 9.6 0.00 0.00 0.00 81 1011.2
20260906133218 81 189 2.6 9.6 0.00 0.00 0.00 82 1011.1
20260906132222 80 188 1.7 5.2 0.00 0.00 0.00 83 1011.1
20260906131218 79 173 1.7 5.2 0.00 0.00 0.00 84 1011.1
20260906130151 78 120 0.9 5.2 0.00 0.00 0.00 85 1010.7
20260906125208 78 121 0.0 1.7 0.00 0.00 0.00 85 1010.5
20260906124219 78 121 0.0 2.6 0.00 0.00 0.00 86 1010.3
20260906123205 78 119 0.0 2.6 0.00 0.00 0.00 86 1010.4
20260906122227 78 114 0.0 1.7 0.00 0.00 0.00 85 1010.2
20260906120114 78 114 0.0 1.7 0.00 0.00 0.00 84 1010.0
20260906115055 78 153 0.0 0.9 0.00 0.00 0.00 84 1009.9
20260906114028 78 221 0.0 0.0 0.00 0.00 0.00 83 1009.8
20260906113038 78 221 0.0 0.0 0.00 0.00 0.00 83 1009.5
20260906112036 78 221 0.0 0.0 0.00 0.00 0.00 82 1009.3
20260906111006 78 221 0.0 0.0 0.00 0.00 0.00 82 1009.1
20260906105956 79 221 0.0 0.0 0.00 0.00 0.00 82 1009.1
20260906104933 79 221 0.0 0.0 0.00 0.00 0.00 82 1009.0
20260906103924 79 221 0.0 0.0 0.00 0.00 0.00 82 1008.8
20260906102924 79 221 0.0 0.0 0.00 0.00 0.00 82 1008.8
20260906101853 79 221 0.0 0.0 0.00 0.00 0.00 82 1008.8
20260906100907 79 202 0.0 0.9 0.00 0.00 0.00 82 1008.8
20260906095834 79 220 0.0 0.9 0.00 0.00 0.00 82 1009.0
20260906094830 79 221 0.0 1.7 0.00 0.00 0.00 82 1009.0
20260906093841 79 277 0.0 0.0 0.00 0.00 0.00 81 1009.0
20260906092840 79 165 0.0 0.9 0.00 0.00 0.00 81 1009.1
20260906091811 79 252 0.0 1.7 0.00 0.00 0.00 81 1009.1
20260906090820 80 227 0.0 2.6 0.00 0.00 0.00 81 1009.1
20260906084646 80 200 0.9 6.1 0.00 0.00 0.00 80 1009.0
20260906083620 80 206 0.9 6.1 0.00 0.00 0.00 79 1009.0
20260906082609 80 182 0.9 4.3 0.00 0.00 0.00 79 1009.0
20260906080456 81 207 1.7 9.6 0.00 0.00 0.00 78 1009.2
20260906075454 81 172 1.7 9.6 0.00 0.00 0.00 77 1009.3
20260906073336 81 199 2.6 7.8 0.00 0.00 0.00 76 1009.7
20260906072337 82 196 1.7 7.8 0.00 0.00 0.00 76 1009.7
20260906071335 82 203 0.9 4.3 0.00 0.00 0.00 75 1009.7
20260906070331 82 180 1.7 6.1 0.00 0.00 0.00 75 1009.9
20260906065347 82 164 2.6 7.0 0.00 0.00 0.00 75 1010.0
20260906064350 82 162 1.7 7.8 0.00 0.00 0.00 74 1010.1
20260906063335 83 163 2.6 7.8 0.00 0.00 0.00 74 1010.1
20260906062345 83 198 2.6 7.0 0.00 0.00 0.00 74 1010.2
20260906061405 83 197 2.6 7.0 0.00 0.00 0.00 73 1010.2
20260906055255 83 229 3.5 7.0 0.00 0.00 0.00 73 1010.3
20260906054235 84 176 1.7 7.0 0.00 0.00 0.00 72 1010.2
20260906052103 84 181 3.5 11.3 0.00 0.00 0.00 71 1010.1
20260906045859 85 159 4.3 10.4 0.00 0.00 0.00 69 1010.2
20260906044919 85 190 3.5 8.7 0.00 0.00 0.00 68 1010.3
20260906042749 85 200 3.5 9.6 0.00 0.00 0.00 67 1010.4
20260906041742 85 176 2.6 7.0 0.00 0.00 0.00 67 1010.4
20260906040750 86 171 1.7 7.0 0.00 0.00 0.00 67 1010.4
20260906034641 86 231 4.3 8.7 0.00 0.00 0.00 66 1010.3
20260906033659 87 177 2.6 9.6 0.00 0.00 0.00 65 1010.2
20260906032645 87 123 3.5 9.6 0.00 0.00 0.00 64 1010.2
20260906031647 87 140 4.3 9.6 0.00 0.00 0.00 62 1010.0
20260906030619 88 157 4.3 9.6 0.00 0.00 0.00 61 1009.7
20260906025544 89 163 3.5 9.6 0.00 0.00 0.00 58 1009.5
20260906024553 89 90 2.6 9.6 0.00 0.00 0.00 58 1009.3
20260906023549 89 132 2.6 6.1 0.00 0.00 0.00 57 1009.1
20260906022543 89 109 2.6 8.7 0.00 0.00 0.00 56 1008.7
20260906021514 90 134 1.7 6.1 0.00 0.00 0.00 55 1008.6
20260906015359 91 148 2.6 8.7 0.00 0.00 0.00 53 1008.3
20260906014420 91 148 1.7 7.0 0.00 0.00 0.00 52 1008.3
20260906013433 92 102 2.6 7.0 0.00 0.00 0.00 51 1008.2
20260906012445 92 117 2.6 7.8 0.00 0.00 0.00 49 1008.2
20260906011430 93 144 2.6 9.6 0.00 0.00 0.00 49 1008.1
20260906010424 94 109 2.6 9.6 0.00 0.00 0.00 47 1008.0
20260906005406 94 55 1.7 7.8 0.00 0.00 0.00 46 1008.0
20260906004341 95 194 2.6 7.0 0.00 0.00 0.00 42 1007.8
20260906003331 96 123 1.7 5.2 0.00 0.00 0.00 40 1007.8
20260906002311 96 159 1.7 5.2 0.00 0.00 0.00 40 1007.6
20260906001242 96 159 1.7 4.3 0.00 0.00 0.00 39 1007.6
20260906000256 96 83 2.6 6.1 0.00 0.00 0.00 39 1007.6
20260905234117 98 161 1.7 6.1 0.00 0.00 0.00 39 1007.6
20260905233129 98 149 2.6 6.1 0.00 0.00 0.00 38 1007.6
20260905230935 99 93 1.7 7.0 0.00 0.00 0.00 37 1007.7
20260905225932 100 109 0.9 5.2 0.00 0.00 0.00 37 1007.7
20260905224941 99 67 1.7 7.0 0.00 0.00 0.00 37 1007.6
20260905223909 99 100 2.6 7.8 0.00 0.00 0.00 37 1007.6
20260905222836 99 81 1.7 7.8 0.00 0.00 0.00 37 1007.7
20260905221828 99 92 2.6 7.8 0.00 0.00 0.00 38 1007.8
20260905220755 99 77 2.6 7.8 0.00 0.00 0.00 37 1007.9
20260905215815 100 108 1.7 7.8 0.00 0.00 0.00 37 1007.9
20260905214807 99 194 0.9 7.8 0.00 0.00 0.00 39 1007.9